Cloud_Cover
100 100 100 100 100 100 100 100 100 100 100 100 100 100 100 100 100 100 100 57 96 89 99 89 48 29 0 11 2 0 0 4 6 20 99 97 3 100 100 14 4 4 98 100 100 100 100
99 100 100 100 100 100 100 100 100 82 100 100 100 100 100 100 100 100 100 32 91 83 51 71 17 15 11 81 0 1 4 6 90 94 83 42 45 100 100 14 7 4 100 100 100 100 100
3 1 54 98 100 100 100 100 100 94 100 100 100 100 100 100 94 100 91 66 100 99 5 96 4 43 92 36 5 2 4 99 100 100 20 51 91 100 83 9 7 100 100 100 100 100 100
4 5 1 63 100 100 100 73 100 100 100 100 100 100 100 100 100 100 100 100 93 31 11 18 6 25 25 2 5 0 67 100 93 12 42 100 100 100 100 14 11 100 100 100 100 100 100
14 31 3 10 44 39 66 83 16 100 100 100 100 100 100 100 100 100 100 100 77 7 13 9 12 5 12 5 0 0 38 100 98 26 30 80 100 100 100 5 4 100 100 100 100 100 100
91 75 35 9 0 0 0 1 29 52 100 100 100 100 100 100 100 100 100 100 99 9 5 5 5 58 2 1 0 0 5 4 81 100 62 100 100 100 100 55 49 100 100 100 100 100 100
2 11 8 14 5 0 0 0 2 6 56 100 100 100 100 100 100 100 100 100 70 94 6 5 5 5 5 0 0 0 5 5 72 85 100 98 100 100 84 34 67 5 100 100 100 100 100
100 74 49 96 100 11 0 3 2 3 14 100 100 100 100 100 100 100 100 100 87 93 5 7 5 5 5 0 0 0 3 96 5 40 91 73 100 100 80 74 57 100 100 100 100 100 100
100 100 98 37 69 100 61 1 9 18 5 99 100 100 100 100 100 100 100 100 100 36 71 42 4 5 5 3 1 0 1 13 97 87 100 72 100 100 100 80 100 100 100 99 100 100 100
100 62 0 0 0 0 0 39 0 4 5 93 100 100 100 100 100 100 100 100 97 50 100 4 5 5 23 4 19 5 5 22 48 99 100 100 100 84 98 99 96 100 100 100 100 100 100
99 15 2 0 0 0 0 2 25 7 5 5 100 100 100 100 100 100 100 100 74 100 100 4 5 5 10 25 15 5 2 82 3 98 98 100 100 100 100 100 92 100 100 100 100 100 100
8 15 5 93 30 3 0 0 0 5 3 5 100 100 100 100 100 100 100 100 92 100 89 46 32 10 55 47 100 4 3 5 5 66 99 100 100 92 100 99 86 100 100 100 100 100 100
5 5 31 100 100 8 4 1 2 6 0 3 100 100 100 100 100 100 100 100 100 100 92 17 23 5 46 100 100 78 26 5 59 100 99 100 100 100 48 100 97 100 100 100 100 100 100
76 10 86 98 100 96 5 5 35 56 15 8 100 100 100 100 100 100 100 100 100 100 28 5 3 5 65 75 32 37 5 34 58 98 100 100 100 100 100 100 100 100 100 100 100 100 100
100 100 100 100 80 98 76 100 97 95 9 74 100 100 100 100 100 100 100 100 100 100 7 5 5 5 17 56 74 41 95 95 100 100 100 100 98 100 100 100 100 98 100 100 100 100 100
100 100 98 91 27 100 90 97 55 100 4 100 100 100 100 100 100 100 100 100 100 90 9 5 5 5 5 5 68 98 61 86 85 98 100 100 100 96 98 99 100 92 66 100 92 100 97
100 100 99 21 100 100 100 97 83 90 54 100 100 100 100 100 100 100 100 100 100 9 7 5 5 5 5 11 87 44 13 5 68 100 98 98 98 91 100 99 100 36 13 34 100 100 14
100 100 73 93 100 100 100 100 100 100 100 100 100 100 100 100 100 100 100 100 85 5 5 5 38 5 2 47 92 28 5 5 99 49 11 5 40 94 74 6 7 5 94 96 60 99 94
100 97 25 100 100 100 100 100 100 100 100 100 100 100 100 100 100 100 100 100 51 6 5 5 62 5 5 10 67 21 5 71 92 92 99 100 92 62 16 15 7 5 5 53 100 99 97
100 99 66 100 100 100 100 100 100 99 100 100 100 100 100 100 100 100 100 100 58 27 5 5 5 5 5 22 75 7 5 16 83 39 64 38 38 78 50 24 15 5 5 3 5 53 100
23 95 100 100 64 100 100 100 100 100 100 100 100 100 100 100 100 100 100 100 100 75 46 5 5 5 5 46 81 63 5 5 8 65 24 10 25 14 5 5 5 5 6 62 83 12 5
7 13 64 94 100 100 100 100 100 100 100 100 100 100 100 100 100 100 100 98 73 48 5 5 5 5 5 5 5 5 5 16 48 70 57 55 5 5 5 5 5 5 5 3 3 0 0
5 81 100 100 100 100 100 100 100 100 100 100 100 100 100 100 100 100 100 84 38 5 5 5 4 5 5 5 5 5 5 5 5 14 34 94 5 5 5 5 3 3 4 6 5 3 1
5 100 99 99 100 100 100 100 100 100 100 100 100 100 100 100 100 100 100 70 5 5 0 5 5 5 5 5 5 5 5 5 5 14 22 41 6 10 56 5 5 0 0 1 5 5 14
5 63 73 100 100 100 100 100 100 100 100 100 100 100 100 100 100 100 100 98 5 5 4 5 5 5 20 5 5 11 24 6 17 5 5 5 5 38 66 44 3 0 0 0 1 2 5
7 81 100 100 100 100 100 100 100 100 100 100 100 100 100 100 100 100 100 100 6 5 10 7 5 5 5 5 5 5 5 5 5 5 5 10 15 52 100 82 11 0 0 0 0 0 0
85 100 89 100 100 100 100 100 100 100 100 100 100 100 100 100 100 100 100 96 26 7 29 5 5 5 5 5 5 5 5 5 10 5 79 88 100 69 100 96 4 0 0 0 0 0 1
100 100 100 100 100 100 100 100 100 100 100 100 100 100 100 100 99 100 100 100 96 19 32 6 23 29 5 5 5 5 5 2 5 5 5 28 44 36 100 100 17 0 0 0 0 0 0
100 100 100 100 100 100 100 100 100 100 100 100 100 100 100 100 84 100 100 100 100 35 26 8 5 5 5 3 31 4 5 5 5 5 5 5 4 6 4 2 0 0 0 0 0 3 5